This is the latest recevied weather packets stored in our database for station/object K4WCH. If no packets are shown the sender has not sent any weather packets the latest 10 day(s).
| Time | Temp. | Humidity | Pressure | Rain* | Wind** | Luminosity | Snow |
|---|---|---|---|---|---|---|---|
| 1788376914 | 30° C | 80% | 1014.7 hPa | 0 mm | - | 205 W/m² | - |
| 1788376614 | 29.44° C | 79% | 1014.9 hPa | 0 mm | - | 219 W/m² | - |
| 1788376309 | 29.44° C | 80% | 1015 hPa | 0 mm | - | 222 W/m² | - |
| 1788376005 | 29.44° C | 79% | 1014.8 hPa | 0 mm | - | 241 W/m² | - |
| 1788375700 | 29.44° C | 80% | 1014.7 hPa | 0 mm | - | 257 W/m² | - |
| 1788375395 | 29.44° C | 82% | 1014.8 hPa | 0 mm | - | 281 W/m² | - |
| 1788375092 | 29.44° C | 79% | 1014.8 hPa | 0 mm | - | 308 W/m² | - |
| 1788374792 | 30° C | 81% | 1014.9 hPa | 0 mm | - | 334 W/m² | - |
| 1788374487 | 30° C | 81% | 1015.1 hPa | 0 mm | - | 337 W/m² | - |
| 1788374183 | 29.44° C | 81% | 1015 hPa | 0 mm | - | 315 W/m² | - |
| 1788373880 | 30° C | 79% | 1015.5 hPa | 0 mm | - | 333 W/m² | - |
| 1788373575 | 30.56° C | 75% | 1015.1 hPa | 0 mm | - | 293 W/m² | - |
| 1788373272 | 30.56° C | 75% | 1015.3 hPa | 0 mm | - | 281 W/m² | - |
| 1788372968 | 30.56° C | 75% | 1015.5 hPa | 0 mm | - | 255 W/m² | - |
| 1788372666 | 30.56° C | 72% | 1015.3 hPa | 0 mm | - | 278 W/m² | - |
| 1788372367 | 31.67° C | 69% | 1015.3 hPa | 0 mm | - | 378 W/m² | - |
| 1788372063 | 31.67° C | 71% | 1015.1 hPa | 0 mm | - | 670 W/m² | - |
| 1788371762 | 31.67° C | 70% | 1015.3 hPa | 0 mm | - | 1074 W/m² | - |
| 1788371458 | 32.22° C | 66% | 1015.3 hPa | 0 mm | - | 498 W/m² | - |
| 1788371155 | 32.22° C | 68% | 1015.3 hPa | 0 mm | - | 434 W/m² | - |
| 1788370851 | 32.22° C | 67% | 1015.2 hPa | 0 mm | - | 400 W/m² | - |
| 1788370550 | 31.67° C | 68% | 1015.4 hPa | 0 mm | - | 361 W/m² | - |
| 1788370245 | 32.22° C | 67% | 1015.5 hPa | 0 mm | - | 1230 W/m² | - |
| 1788369945 | 32.22° C | 68% | 1015.4 hPa | 0 mm | - | 1045 W/m² | - |
| 1788369639 | 31.67° C | 70% | 1015.5 hPa | 0 mm | - | 1039 W/m² | - |
* Rain latest hour (hover to see other rain measurements)
** Current wind speed in m/s (hover to see current wind gust speed)